Temp
93 92 95 93 95 74 85 86 77 81 92 87 76 77 82 81 75 69 80 78 82 92 95 97 96 97 96 97 98 98 97 97 96 95 97 98 95 93 93 93 92 91 93 92 91 92 94 94 93 91 89 89 89 88 88 87 86 87 86 86 87 87 86
93 98 96 95 95 94 89 79 84 93 96 92 80 68 71 71 66 69 79 74 77 78 72 91 92 92 94 95 96 99 97 97 96 97 97 96 94 94 95 94 93 93 93 93 94 95 96 96 94 91 89 90 90 90 90 87 87 86 87 87 87 87 86
93 97 95 90 94 96 88 87 99 83 73 71 78 73 62 65 63 66 73 79 77 78 77 88 89 90 92 92 93 95 95 96 95 97 97 94 96 96 95 96 94 94 94 94 93 96 99 97 93 92 92 92 92 92 92 92 89 89 89 90 89 88 88
92 92 89 75 82 92 94 95 90 95 86 78 72 74 74 73 65 64 67 74 70 82 84 89 89 90 91 95 93 94 98 98 98 98 95 94 94 94 95 96 96 95 97 99 98 98 98 97 95 95 95 95 95 94 92 92 92 90 89 88 88 87 89
91 78 84 79 83 79 81 83 81 86 86 91 87 84 77 72 66 65 66 66 73 83 93 92 92 92 94 96 93 92 96 99 101 102 97 93 94 95 96 97 97 96 97 99 100 100 100 99 97 97 97 95 96 96 94 94 90 91 91 90 90 88 89
80 83 90 89 89 88 85 82 80 83 81 76 70 68 85 80 72 62 66 64 75 89 98 94 95 96 97 96 95 95 97 100 97 99 102 96 95 95 96 99 101 100 98 98 99 99 98 99 99 97 97 96 96 95 96 95 94 93 92 91 89 88 88
83 87 93 94 94 93 91 88 83 88 86 84 75 61 69 79 79 82 76 70 73 91 95 95 96 97 100 99 99 96 98 98 101 101 104 100 96 97 100 101 103 101 98 98 97 94 93 95 95 96 96 96 96 96 96 95 94 93 94 93 92 89 89
88 93 94 95 94 92 88 89 90 87 82 85 82 79 79 75 77 73 74 66 75 91 92 95 98 95 100 99 99 97 101 100 101 101 101 96 95 96 101 101 102 97 97 95 93 91 91 91 92 94 95 95 96 96 97 96 95 95 95 95 94 91 89
73 79 85 87 92 90 85 84 87 89 89 88 88 87 84 74 77 79 72 63 74 88 93 93 97 98 99 100 102 101 98 98 101 101 97 94 92 93 97 95 94 93 94 91 89 90 88 89 93 93 94 95 96 96 97 97 96 97 96 95 95 93 92
57 57 62 67 73 79 84 86 87 88 87 85 81 74 76 67 72 74 72 72 81 90 90 92 94 95 93 98 100 102 100 95 98 96 93 91 91 90 92 92 92 92 90 89 88 88 88 90 93 91 91 95 97 96 96 98 97 97 97 97 96 93 93
68 71 75 85 85 83 78 82 83 86 88 89 85 81 75 71 72 72 71 75 79 83 90 88 92 92 93 96 97 97 97 99 96 90 91 92 91 91 93 91 91 89 88 87 87 87 91 94 94 94 94 95 96 93 95 98 98 98 96 96 93 94 93
77 83 81 87 86 81 83 82 82 85 85 86 83 78 74 78 74 68 72 76 77 80 86 88 88 93 92 94 93 97 96 94 98 95 89 92 94 95 92 92 90 89 88 88 87 88 91 93 94 95 95 96 95 94 95 97 99 99 98 94 93 91 91
82 84 85 86 87 86 84 84 84 83 84 84 81 79 83 80 74 70 76 76 76 81 88 91 91 91 91 95 96 97 99 99 95 93 94 95 97 95 95 91 89 89 89 87 88 90 91 94 93 94 95 95 94 93 96 95 100 99 96 93 92 92 90
80 82 83 85 84 85 85 84 85 86 86 84 84 84 86 85 77 80 82 78 81 87 89 93 95 95 97 97 96 97 96 98 95 97 94 101 100 99 95 94 94 92 92 91 91 91 91 92 91 95 93 92 95 95 96 98 96 99 95 93 90 91 90
77 82 83 84 83 83 81 85 86 87 86 86 86 85 86 85 84 85 84 79 79 90 91 92 96 95 96 95 95 97 95 96 99 98 100 99 99 99 95 91 93 92 93 93 92 91 90 91 91 92 92 93 95 99 99 100 96 99 98 91 91 90 89
72 80 82 81 82 82 81 80 83 83 83 81 84 81 86 82 77 80 82 78 80 89 92 94 94 94 92 92 90 91 91 97 96 95 98 96 94 96 94 92 93 92 93 92 92 92 94 93 92 93 91 93 95 97 98 99 101 101 97 94 92 89 90
69 77 81 81 81 77 72 74 80 84 85 85 87 88 88 87 87 80 76 78 86 88 90 90 91 95 94 92 92 92 92 89 94 94 94 96 97 94 93 92 91 95 96 95 93 95 97 95 95 96 94 95 93 95 95 96 97 100 98 96 91 89 89
68 76 78 79 70 60 64 82 88 86 84 85 81 85 89 89 88 84 87 87 89 90 90 89 88 90 91 91 92 94 92 90 90 95 95 98 99 100 98 96 96 95 94 95 96 96 95 96 100 99 97 97 95 97 98 95 95 94 93 93 90 89 88
68 73 73 64 58 62 77 87 90 90 89 88 87 87 88 89 91 91 88 88 88 89 91 91 90 90 91 93 95 98 100 95 95 92 96 94 95 96 96 94 97 93 93 94 94 94 98 100 98 98 98 98 97 98 97 96 94 91 91 90 89 89 87
72 67 66 55 57 75 83 85 88 91 90 89 86 83 88 91 89 88 88 87 89 90 91 93 94 92 96 97 95 95 99 99 98 99 98 99 100 99 100 94 93 91 95 95 98 95 97 97 99 100 100 101 101 100 101 97 94 92 91 89 89 88 88
62 65 65 64 73 72 76 76 81 84 79 80 78 71 78 87 89 89 83 82 87 88 89 95 95 95 96 91 91 100 101 99 101 103 103 104 103 103 100 101 96 94 96 96 98 95 96 99 98 99 101 101 99 99 99 98 92 93 92 89 88 86 85
70 64 61 62 62 57 66 77 86 89 87 86 83 74 72 82 85 86 84 83 84 83 85 84 91 93 88 84 87 95 102 104 103 104 105 107 104 104 103 100 99 95 96 97 97 98 97 97 99 99 100 98 95 93 94 95 93 92 91 86 87 86 86
66 63 59 59 57 62 73 78 85 88 89 88 84 76 69 82 86 87 85 85 85 84 86 84 82 82 81 82 87 95 100 102 104 103 103 106 107 106 103 103 101 99 95 95 99 96 96 97 97 96 96 95 93 92 92 92 91 91 89 86 87 86 86
64 62 60 59 66 64 71 80 84 88 88 87 80 61 65 76 84 83 84 82 83 83 82 83 82 78 73 80 90 101 102 102 103 100 99 100 102 103 103 105 104 96 92 92 95 97 96 94 97 96 95 94 92 91 91 93 93 92 89 86 87 88 87
61 56 59 64 67 73 78 82 87 86 87 80 65 56 72 77 81 82 83 83 83 82 81 83 78 81 83 85 89 97 103 103 103 103 100 98 101 101 104 103 96 95 93 94 95 98 96 94 96 96 94 94 91 90 90 90 90 93 91 87 87 86 85
60 62 58 60 67 74 78 83 86 84 78 63 62 75 79 80 80 83 84 83 82 80 78 77 78 81 89 91 94 94 96 100 95 95 95 94 96 100 98 93 93 95 97 93 94 97 93 94 95 95 93 90 89 89 90 89 90 92 88 87 87 86 84
66 64 58 56 49 69 81 77 80 83 68 69 76 79 81 82 82 81 82 78 73 75 74 77 77 79 80 85 89 92 91 96 93 90 90 90 93 91 88 93 97 96 94 93 95 95 97 98 98 96 95 89 88 88 88 87 90 89 87 87 86 85 84
59 59 56 56 70 77 81 77 68 76 79 79 79 80 78 81 80 78 76 73 74 75 74 73 74 76 77 79 81 87 91 92 95 91 91 91 92 92 93 94 92 96 91 90 91 94 97 96 96 95 91 86 86 85 85 88 87 87 86 85 84 83 82
66 62 67 71 76 81 84 80 79 80 80 82 81 79 76 74 74 76 73 71 74 74 75 74 73 73 74 76 81 81 81 82 81 81 83 85 85 86 85 90 89 90 90 89 91 92 94 92 91 89 88 86 83 82 84 85 85 85 84 83 82 82 82
70 73 73 76 77 79 80 82 83 83 81 80 80 76 74 73 74 74 72 72 73 73 74 74 73 73 74 75 77 77 77 77 78 78 79 78 77 78 76 74 74 82 90 91 92 88 86 87 87 87 86 85 82 82 84 83 84 83 82 81 81 81 81
63 52 69 74 73 75 77 78 79 82 81 78 78 74 73 74 74 74 74 72 71 71 70 69 70 71 71 71 73 74 73 74 74 76 74 74 73 73 72 73 77 80 77 81 80 85 85 85 86 87 87 86 84 83 82 82 83 82 81 80 79 79 79
57 59 65 68 71 70 72 75 77 76 76 77 76 75 76 76 77 76 75 74 72 73 70 69 68 67 67 66 67 70 72 72 73 73 71 70 70 70 70 73 72 71 72 72 71 72 73 78 79 78 80 84 85 84 85 85 84 82 79 79 79 79 79
55 64 68 69 69 69 70 70 71 74 77 75 75 76 76 76 75 74 74 75 74 73 71 70 68 66 65 66 66 67 66 67 70 71 73 71 72 72 71 72 75 79 78 79 79 80 78 78 81 80 82 85 86 85 85 85 82 81 79 78 79 80 80
52 53 58 67 62 58 64 68 70 70 72 73 73 73 73 74 74 74 73 73 74 74 73 70 68 65 65 65 66 65 65 65 67 68 69 70 70 72 73 74 74 73 72 73 74 74 76 81 82 83 84 85 87 88 86 85 83 79 79 80 80 80 81
51 57 63 65 67 64 65 67 70 71 72 72 70 70 71 72 72 72 71 70 69 70 70 71 69 68 67 67 68 67 66 66 66 69 72 73 75 75 78 77 75 77 77 79 80 81 81 83 84 84 85 86 86 86 84 84 83 81 81 80 81 82 80
58 63 63 66 66 63 65 68 69 69 71 71 70 71 71 71 71 71 70 69 68 67 68 69 70 68 68 69 70 69 68 70 70 67 73 79 79 80 81 80 78 79 79 80 80 81 83 83 84 84 86 86 84 85 84 84 83 81 81 80 80 80 80
57 64 65 67 67 67 68 68 69 69 70 70 68 67 69 70 71 72 70 69 70 69 67 67 68 69 68 68 69 71 71 70 72 75 75 75 78 78 80 81 80 79 79 80 80 82 82 83 84 84 84 85 86 87 84 84 83 81 80 81 82 81 79
MSLP
996.40 997.20 996.68 997.32 997.00 1004.20 999.88 1000.32 1003.00 1001.12 998.56 1000.60 1003.60 1003.44 1002.04 1002.00 1004.28 1005.60 1001.56 1002.28 1000.40 997.32 996.52 996.16 996.20 996.64 996.84 996.68 996.84 996.92 997.20 997.48 997.80 998.32 998.24 998.40 999.36 999.92 1000.40 1000.84 1001.16 1001.20 1001.16 1001.24 1001.40 1001.84 1002.28 1002.56 1003.04 1003.48 1003.92 1004.32 1004.76 1005.20 1005.64 1006.20 1006.56 1006.88 1007.20 1007.44 1007.80 1008.08 1008.48
996.08 995.08 995.88 996.52 996.56 996.72 998.64 1001.60 999.44 997.40 996.76 997.96 1001.80 1006.36 1005.12 1005.32 1006.84 1005.16 1002.52 1003.88 1002.24 1002.04 1004.16 997.32 997.40 997.60 997.36 997.36 997.08 996.60 996.52 996.92 997.72 997.44 997.32 997.84 998.88 999.12 999.12 999.36 999.64 1000.08 1000.32 1000.48 1000.80 1001.12 1001.32 1001.68 1002.20 1002.84 1003.52 1003.88 1004.32 1004.64 1005.08 1005.76 1006.20 1006.68 1006.88 1007.16 1007.44 1007.72 1008.16
995.80 995.00 996.24 997.84 996.28 995.60 997.76 998.04 994.64 1000.16 1003.40 1004.24 1001.08 1004.08 1007.96 1006.80 1007.08 1006.64 1003.44 1001.80 1002.28 1001.64 1001.64 998.28 997.92 998.00 997.56 997.24 996.80 996.76 996.76 996.84 997.04 996.72 996.48 997.08 997.56 998.20 998.80 998.96 999.28 999.60 999.88 1000.16 1000.32 1000.48 1000.48 1000.96 1001.60 1002.24 1002.88 1003.44 1003.92 1004.32 1004.60 1005.00 1005.60 1005.88 1006.32 1006.60 1006.92 1007.20 1007.48
995.16 996.04 997.28 1001.32 999.12 996.36 995.76 995.84 996.88 995.60 998.72 1001.00 1003.88 1002.60 1002.64 1002.96 1006.12 1007.20 1005.40 1003.16 1004.24 999.44 998.88 997.44 997.28 996.84 996.52 996.20 996.52 996.60 996.08 995.80 995.80 995.44 996.08 996.64 997.48 997.80 998.20 998.36 998.56 998.80 998.88 999.12 999.56 999.96 1000.40 1000.64 1001.28 1001.80 1002.40 1002.92 1003.52 1003.84 1004.28 1004.64 1005.00 1005.40 1005.88 1006.28 1006.56 1006.96 1007.08
995.24 999.20 997.28 998.92 998.36 1000.00 999.80 999.64 999.64 998.04 998.04 996.32 997.92 999.24 1001.12 1003.40 1005.36 1005.56 1005.32 1005.64 1002.16 998.48 995.76 996.00 995.84 995.44 995.00 994.96 996.08 996.00 995.52 995.28 994.84 994.56 995.44 996.04 996.40 997.04 997.36 997.48 997.80 998.28 998.52 998.76 999.08 999.36 999.84 1000.36 1000.96 1001.56 1002.04 1002.52 1002.92 1003.24 1003.80 1004.16 1004.80 1005.16 1005.60 1005.84 1006.08 1006.44 1006.60
997.84 996.92 995.48 996.24 996.56 996.76 998.08 998.88 999.36 998.36 999.20 1000.88 1003.52 1003.84 998.84 1000.00 1002.84 1004.40 1005.16 1005.44 1000.76 996.40 993.72 994.32 994.48 993.88 994.12 994.72 995.40 995.52 995.04 994.80 994.60 994.44 994.20 995.72 996.32 996.28 996.28 996.40 996.48 997.04 997.64 998.20 998.60 999.00 999.60 1000.20 1000.60 1001.16 1001.40 1001.96 1002.48 1002.84 1003.12 1003.60 1004.08 1004.56 1004.96 1005.24 1005.48 1005.84 1006.12
996.44 995.76 994.12 993.96 994.40 994.68 995.44 996.48 998.00 996.64 996.92 997.56 1001.04 1005.12 1002.28 1000.12 999.52 999.56 1001.04 1003.56 1001.04 994.96 993.24 993.40 993.52 993.44 993.00 993.36 993.92 994.72 994.32 994.00 994.08 993.72 993.48 994.12 995.12 995.48 995.20 995.16 995.52 996.04 996.60 997.08 997.76 998.52 999.24 999.76 1000.16 1000.72 1001.20 1001.44 1001.80 1002.28 1002.64 1003.00 1003.48 1003.92 1003.96 1004.32 1004.64 1005.20 1005.68
994.44 993.24 993.08 993.04 993.76 994.76 996.00 995.56 995.24 996.32 997.64 996.60 997.44 998.60 998.56 1000.28 999.92 1001.04 1001.32 1003.40 1000.56 994.92 993.08 992.88 992.72 992.76 992.48 992.36 992.96 993.68 993.32 993.12 993.00 993.20 993.24 994.08 994.40 994.32 994.16 994.44 994.88 995.68 996.28 996.76 997.48 998.36 998.96 999.44 999.80 1000.12 1000.44 1000.80 1001.12 1001.52 1001.92 1002.36 1002.96 1003.24 1003.36 1003.60 1004.04 1004.68 1005.28
999.52 997.36 995.00 995.20 993.84 994.84 996.36 996.48 995.40 995.12 995.32 995.72 995.60 995.84 996.04 1000.16 999.04 998.40 1001.00 1004.64 1001.20 995.64 993.24 992.96 992.84 993.04 993.32 992.72 992.20 992.52 993.48 992.80 992.60 992.84 993.44 994.32 994.64 994.72 994.88 995.20 995.72 996.32 996.88 997.44 997.60 997.80 998.40 998.76 999.04 999.52 1000.12 1000.48 1000.64 1001.00 1001.24 1001.76 1002.16 1002.32 1002.64 1002.84 1003.44 1004.08 1004.60
1003.92 1003.76 1001.72 1000.00 999.04 997.32 996.16 995.88 995.52 995.00 995.80 996.44 997.72 999.76 998.84 1001.04 999.08 999.00 1000.64 1000.72 997.08 994.64 993.76 993.96 993.72 993.72 993.72 992.52 992.16 992.08 992.36 992.88 992.92 993.48 994.20 994.48 995.08 995.40 995.56 995.80 996.20 996.72 996.80 996.84 997.00 997.40 997.88 998.36 998.64 999.08 999.48 999.96 1000.28 1000.48 1000.64 1000.84 1001.44 1001.68 1002.00 1002.24 1002.80 1003.48 1004.00
999.32 998.48 996.60 994.16 994.80 996.08 997.60 996.40 996.08 995.44 994.64 994.68 995.68 997.12 999.20 1000.32 998.72 999.60 998.76 998.84 997.64 996.48 994.96 995.00 994.36 994.08 994.32 993.84 993.04 992.96 992.84 992.44 993.12 994.20 994.40 994.80 995.08 995.16 995.36 995.64 996.00 996.40 996.96 997.16 997.04 997.04 997.20 997.60 998.00 998.52 999.00 999.48 999.80 1000.04 1000.28 1000.32 1000.56 1000.96 1001.36 1001.76 1002.36 1003.00 1003.40
996.08 995.08 995.60 993.88 994.04 996.16 995.68 996.04 996.16 995.60 995.32 995.08 996.04 997.48 998.48 996.44 998.68 1000.64 997.52 997.04 998.64 997.92 995.68 994.64 994.60 993.84 994.04 993.92 993.60 993.00 992.96 993.16 992.84 993.52 994.32 994.64 995.08 995.00 995.28 995.64 996.16 996.76 997.00 997.00 996.96 996.96 997.12 997.40 997.64 998.00 998.40 998.84 999.28 999.56 999.84 999.84 1000.00 1000.40 1000.68 1001.32 1001.96 1002.48 1002.84
995.32 994.64 994.36 993.96 993.68 994.08 994.68 994.92 995.12 995.68 995.56 995.44 996.36 996.20 995.44 995.92 998.32 999.76 996.96 996.56 998.00 997.00 995.48 994.28 993.92 993.72 994.08 994.00 994.08 993.44 992.72 992.80 992.88 993.04 993.84 994.44 994.64 994.72 995.00 995.48 995.80 996.28 996.68 996.84 996.80 996.72 996.72 996.96 997.52 997.92 998.28 998.64 998.92 999.28 999.32 999.44 999.40 999.68 999.96 1000.76 1001.44 1001.88 1002.28
995.28 995.00 994.68 993.92 994.24 994.04 994.24 994.40 994.12 994.12 994.52 995.32 995.16 994.92 994.32 994.80 996.08 995.72 995.72 996.40 996.56 995.28 994.92 993.80 993.08 992.72 992.92 992.92 992.76 992.96 993.12 992.88 992.68 992.88 993.52 993.60 993.92 994.20 994.72 995.00 995.32 995.52 995.76 996.08 996.28 996.36 996.72 997.00 997.28 997.56 998.00 998.32 998.52 998.80 998.96 999.00 999.12 999.00 999.52 1000.28 1000.84 1001.28 1001.80
995.44 994.48 994.40 994.32 994.48 994.52 994.80 993.64 993.56 993.36 993.64 994.04 994.12 994.52 994.04 993.96 994.80 994.92 995.48 996.12 996.20 993.40 992.84 993.04 992.04 991.80 992.32 992.76 993.36 993.32 993.24 993.08 992.92 993.00 993.24 993.32 993.20 993.16 994.00 994.80 994.84 995.00 994.96 995.12 995.52 995.88 996.16 996.36 996.68 996.92 997.20 997.48 997.80 998.08 998.40 998.60 998.76 998.52 998.92 999.80 1000.36 1000.84 1001.32
996.68 994.28 994.08 994.48 994.56 994.72 995.04 994.92 994.16 994.52 994.24 994.88 994.20 994.80 993.96 995.04 996.00 995.72 995.84 996.52 996.00 993.44 992.72 992.72 992.56 992.48 992.96 993.68 993.76 993.72 993.44 992.96 992.96 993.08 992.96 993.16 993.32 993.36 993.96 994.20 994.40 994.64 994.68 994.80 995.20 995.64 995.72 995.84 996.12 996.40 996.80 997.08 997.48 997.80 997.76 997.92 997.96 997.92 998.40 999.12 999.76 1000.24 1000.52
997.24 994.88 993.92 994.28 994.72 996.04 997.40 996.24 994.20 992.92 993.28 993.40 992.68 992.28 992.56 993.28 993.84 995.56 996.64 996.00 993.56 992.92 992.48 993.40 992.92 992.40 992.64 993.36 993.72 993.60 993.16 993.00 992.88 992.96 993.04 993.04 992.96 993.20 992.92 993.52 994.12 994.12 994.08 994.16 994.44 994.56 994.76 995.16 995.52 995.56 995.80 996.40 997.00 997.08 997.28 997.24 997.32 997.64 998.16 998.56 999.20 999.80 1000.16
997.52 995.60 994.96 994.48 997.64 1000.60 998.08 992.60 992.04 992.72 993.44 993.16 994.44 993.20 992.08 992.00 992.52 993.60 993.16 993.36 992.32 992.36 992.64 993.12 993.12 992.68 992.40 992.24 991.88 991.60 992.32 992.96 993.04 992.52 992.40 992.48 992.32 992.28 992.60 992.72 993.16 993.40 993.44 993.40 993.56 993.80 994.04 994.24 994.28 994.44 994.80 995.48 995.84 996.08 996.48 996.92 997.32 997.48 997.84 998.24 998.72 999.28 999.68
997.00 996.24 996.52 998.68 1000.36 998.44 993.76 992.00 991.44 991.48 991.84 992.04 992.28 992.08 991.88 991.60 990.96 991.40 992.32 992.04 992.16 992.08 992.00 992.08 991.80 991.56 991.32 990.96 991.20 991.12 990.92 991.44 991.96 992.60 992.40 992.20 992.04 991.88 991.72 992.28 992.32 992.92 993.20 993.28 993.40 993.72 993.76 993.68 993.76 994.16 994.76 994.96 995.40 995.92 996.32 996.84 996.92 997.28 997.48 997.92 998.44 998.88 999.32
995.96 997.36 997.80 1000.84 999.20 994.56 993.12 992.64 991.92 991.08 991.36 991.60 992.56 993.28 991.52 990.92 991.52 991.44 991.84 992.08 991.80 991.32 991.40 991.24 990.88 991.04 990.88 990.60 990.24 990.64 990.72 990.72 991.20 991.64 991.96 991.72 991.48 991.56 991.28 991.72 991.88 992.48 992.64 992.80 992.96 993.28 992.88 993.08 993.36 993.56 993.96 994.08 994.72 995.28 995.48 996.16 996.68 996.96 997.28 997.76 998.16 998.52 999.04
998.16 997.68 997.84 997.68 995.28 995.88 995.12 995.08 993.80 993.08 994.44 994.28 994.88 996.92 994.56 992.00 991.52 991.52 993.40 993.60 992.48 992.36 992.00 990.64 990.56 990.72 991.04 992.00 991.60 989.96 990.08 990.32 990.04 990.16 990.12 989.96 990.16 990.28 990.44 990.52 991.24 991.24 991.32 991.76 991.88 992.32 992.64 992.80 992.96 993.20 993.24 993.64 994.24 994.76 995.32 995.72 996.28 996.76 997.12 997.76 998.08 998.40 999.00
995.92 997.84 999.04 998.72 998.80 999.84 997.20 994.04 992.08 991.36 992.16 992.44 993.32 995.56 996.32 993.24 992.76 992.40 993.04 993.28 993.16 993.48 993.12 992.96 991.40 990.52 992.60 994.04 993.00 990.84 989.60 989.20 989.52 989.32 989.04 988.68 988.96 989.32 989.60 989.52 990.00 990.56 990.76 990.96 991.12 991.64 992.28 992.48 992.24 992.32 992.64 993.28 994.04 994.64 995.04 995.32 996.00 996.60 997.12 997.96 997.96 998.36 998.88
996.68 997.92 999.04 998.80 999.52 997.64 994.92 993.92 992.28 991.68 991.48 992.20 993.16 995.52 997.80 993.48 992.36 992.36 992.92 993.24 993.12 993.48 993.40 993.44 993.44 994.08 994.92 994.12 992.36 990.04 989.36 989.24 988.96 989.20 989.00 988.60 988.44 988.72 989.16 989.44 989.84 990.16 990.24 990.40 990.80 991.20 991.60 992.20 991.92 991.92 992.36 993.00 993.88 994.64 994.76 995.04 995.60 996.36 997.04 997.64 997.84 998.32 998.72
997.52 997.80 998.68 998.64 996.68 997.60 995.60 993.52 992.52 991.68 991.92 992.20 994.72 1000.44 998.64 995.16 993.16 993.32 993.28 993.92 993.76 993.80 993.80 993.68 994.04 995.52 997.24 995.04 991.60 989.08 988.72 988.60 988.16 988.32 988.88 988.60 988.40 988.68 988.84 988.76 988.60 989.04 989.48 990.16 990.80 991.36 991.72 991.68 991.32 991.52 992.00 992.72 993.64 994.32 994.60 994.64 995.32 996.00 996.56 997.04 997.24 997.68 998.44
998.44 999.36 999.16 997.68 996.32 994.80 993.96 993.12 991.84 992.36 992.16 994.36 999.04 1000.84 996.60 994.64 993.76 993.52 993.44 993.68 993.80 993.76 994.20 994.00 995.52 994.20 993.64 993.00 991.76 989.92 988.44 988.40 988.04 987.84 988.24 988.60 988.00 988.36 988.64 988.84 988.48 989.32 989.52 990.04 990.76 990.96 991.04 991.04 991.00 991.20 991.76 992.68 993.68 994.16 994.52 994.92 995.24 995.36 995.92 996.68 997.08 997.76 998.52
998.76 998.40 999.20 998.56 996.64 994.36 993.80 992.80 992.32 992.96 995.00 999.48 999.28 995.44 993.92 993.92 994.04 993.40 993.52 993.88 993.84 994.24 994.68 995.12 995.00 993.88 992.28 991.52 990.56 990.16 989.68 988.64 989.08 989.08 989.52 989.72 989.64 988.96 988.64 988.80 988.96 989.48 989.44 990.08 990.48 990.56 990.64 990.80 990.88 991.12 991.72 992.80 993.52 994.08 994.60 995.12 995.16 995.00 995.76 996.56 997.20 997.76 998.36
997.04 997.48 999.24 999.60 1001.16 995.16 992.92 994.52 993.80 993.20 997.32 996.84 995.08 993.92 993.68 993.60 993.72 994.08 994.00 994.84 995.88 995.60 995.76 995.08 994.84 994.16 993.60 992.56 991.44 990.52 990.24 989.16 989.04 989.40 989.96 990.36 990.60 990.84 990.76 990.28 989.44 989.56 990.12 990.44 990.52 990.56 990.40 990.48 990.60 991.04 991.68 992.92 993.64 994.12 994.84 995.08 994.84 995.20 995.84 996.40 997.16 997.92 998.56
998.36 998.52 999.20 998.68 995.40 993.48 992.92 994.56 997.28 994.88 994.12 994.12 993.88 994.00 994.72 994.08 994.24 994.88 995.20 996.12 995.92 995.60 995.72 995.64 995.32 994.92 994.52 993.84 992.96 991.48 990.08 989.72 989.00 989.44 989.60 989.92 990.24 990.60 990.44 990.40 990.64 990.32 990.52 990.36 990.48 990.36 990.24 990.40 990.64 991.08 991.88 993.12 993.72 994.52 995.12 994.64 994.88 995.32 995.92 996.60 997.24 998.12 998.84
996.28 997.00 995.80 994.96 993.52 992.60 992.32 993.40 994.24 993.80 993.88 993.52 993.80 994.44 995.44 995.88 996.12 995.72 996.32 996.76 996.12 995.76 995.40 995.36 995.44 995.40 995.44 995.08 993.92 993.52 992.96 992.24 992.16 991.80 991.36 991.36 991.56 991.60 991.80 991.32 991.28 991.40 991.04 990.92 990.72 990.68 990.60 990.76 990.96 991.44 992.00 993.04 993.96 995.00 995.08 994.88 995.44 995.80 996.28 997.00 997.76 998.56 999.16
994.80 994.32 994.28 993.96 993.80 993.44 993.36 993.40 993.44 993.48 994.04 994.12 994.28 995.56 996.48 996.80 996.72 996.56 996.92 996.76 996.56 996.24 995.48 995.40 995.64 995.96 995.92 995.60 994.84 994.32 994.08 993.72 993.20 992.84 992.52 992.60 992.64 992.44 992.64 993.00 994.12 993.24 991.52 990.72 990.72 991.36 991.68 991.36 991.52 991.76 992.44 993.00 994.28 994.92 994.96 995.48 996.00 996.60 997.16 997.84 998.56 999.12 999.60
996.28 999.12 995.56 994.56 995.12 994.68 994.20 994.52 994.52 994.08 994.32 994.96 995.12 996.04 996.68 996.92 996.80 996.76 996.84 996.88 996.92 996.88 996.60 996.88 996.84 996.56 996.60 996.64 996.12 995.44 995.00 994.44 994.24 993.92 993.88 993.92 994.24 994.56 995.48 995.60 994.12 993.48 993.32 992.60 992.84 992.48 992.44 992.32 992.40 992.44 992.76 993.24 993.76 994.40 995.20 996.08 996.52 997.04 997.72 998.36 999.00 999.36 999.88
999.28 998.56 997.12 996.04 995.76 996.04 995.92 995.28 995.00 995.60 995.68 995.44 995.68 995.92 996.00 996.24 996.32 996.52 996.76 996.76 997.16 996.76 997.12 997.60 997.76 998.00 997.88 997.60 997.20 996.68 996.36 996.00 994.92 994.40 994.68 994.72 994.72 995.60 996.76 996.48 995.56 994.88 994.36 994.08 994.44 995.04 995.04 994.08 993.88 994.04 994.00 993.84 994.00 994.60 995.28 995.84 996.60 997.36 998.08 998.52 999.00 999.44 999.84
1000.44 997.88 996.60 995.92 996.08 996.76 997.08 997.08 996.84 996.04 995.60 996.04 996.28 996.32 996.48 996.60 997.04 997.28 997.20 997.08 997.40 997.28 997.68 997.56 997.80 998.28 998.48 998.04 997.76 997.68 997.68 997.52 996.72 995.72 995.68 995.76 995.68 996.08 996.76 996.64 995.56 994.36 994.20 994.20 994.24 994.44 994.96 994.64 994.28 994.60 994.52 994.36 994.36 994.80 995.48 996.16 996.84 997.64 998.44 998.92 999.32 999.80 1000.20
1000.64 1000.00 998.84 996.40 997.88 999.56 998.84 998.16 997.72 997.64 997.32 997.12 997.24 997.24 997.40 997.48 997.56 997.56 997.72 997.88 997.68 997.60 997.76 997.96 997.96 998.32 998.32 998.08 998.08 998.56 998.72 998.80 998.60 997.88 997.72 997.44 997.32 996.92 996.44 996.08 995.28 994.96 995.40 995.40 995.16 995.52 995.64 994.68 994.36 994.40 994.60 994.76 994.92 995.28 995.88 996.52 997.12 997.96 998.60 999.08 999.52 1000.08 1000.44
1000.60 999.48 997.88 997.08 996.72 998.08 998.60 998.60 998.32 998.00 997.92 997.92 998.12 998.32 998.32 998.36 998.32 998.36 998.44 998.64 998.68 998.56 998.48 998.24 998.32 998.16 997.84 997.60 997.84 998.92 999.52 999.28 999.08 998.12 997.48 997.24 997.04 996.52 995.56 995.56 995.44 995.08 995.20 995.36 995.36 995.52 995.52 994.84 994.76 994.92 995.12 995.24 995.56 995.96 996.36 996.80 997.36 997.96 998.44 999.04 999.44 999.96 1000.56
999.72 998.56 998.32 997.48 997.44 998.60 999.00 998.76 998.72 998.60 998.36 998.36 998.56 998.56 998.64 998.76 998.80 998.80 998.96 999.12 999.36 999.44 999.24 998.88 998.56 998.60 998.24 997.72 997.92 998.80 999.00 998.84 998.60 998.80 997.28 996.12 995.72 995.44 995.08 994.96 994.92 994.88 995.08 995.20 995.36 995.56 995.44 995.32 995.40 995.36 995.60 995.80 996.08 996.44 996.76 997.16 997.56 998.00 998.40 998.88 999.44 999.88 1000.28
999.48 998.08 998.20 997.76 997.76 998.44 998.80 998.96 998.96 998.92 998.84 998.88 999.28 999.48 999.44 999.32 999.16 998.96 999.16 999.40 999.44 999.68 999.84 999.72 999.28 998.92 999.00 998.96 998.92 999.00 999.20 999.44 999.00 998.16 997.40 996.44 995.92 995.68 995.52 995.24 995.20 995.44 995.64 995.76 995.76 995.68 995.76 995.76 995.84 995.92 996.20 996.40 996.32 996.60 997.04 997.44 997.80 998.32 998.72 999.08 999.52 999.92 1000.28
Wind_Speed
18 19 17 18 15 14 13 16 20 20 17 17 14 15 17 16 13 14 7 11 13 11 13 11 12 14 15 16 17 18 18 19 17 17 19 20 21 19 17 18 17 19 19 18 19 20 19 19 20 21 18 17 16 16 17 18 18 17 17 17 16 15 14
22 17 18 19 20 16 11 17 19 18 21 19 13 13 10 14 14 11 13 17 13 11 10 13 18 16 16 16 17 19 16 21 19 18 16 20 21 19 19 18 19 21 20 19 20 21 22 21 22 20 18 17 15 15 17 18 18 19 17 16 16 15 15
20 19 17 19 22 25 22 15 13 16 15 20 13 8 15 17 16 11 14 16 14 14 12 10 16 17 17 16 15 16 15 17 20 18 17 24 22 19 19 18 17 16 17 17 18 22 24 20 18 18 18 17 16 15 17 20 20 19 19 18 16 14 15
18 18 16 18 18 22 27 21 16 17 14 14 15 14 12 11 12 13 16 16 12 12 11 14 14 16 17 18 15 16 17 17 15 15 15 20 22 19 17 16 15 18 20 23 24 24 24 23 19 20 23 21 24 21 18 17 19 17 18 18 16 15 16
16 17 16 18 16 17 17 19 18 14 13 12 12 13 16 12 11 13 12 14 11 10 12 16 16 12 13 13 7 7 14 14 16 13 11 23 23 20 19 18 18 18 18 20 21 20 19 18 17 19 21 23 23 22 21 22 20 21 22 20 18 15 15
17 16 17 19 18 16 16 18 19 19 15 15 16 15 14 16 13 8 11 14 8 10 12 10 11 7 11 12 14 12 15 18 14 13 12 18 18 19 19 18 18 18 18 18 17 15 15 17 20 23 21 21 23 23 21 22 22 21 22 21 17 16 15
14 18 19 22 21 19 19 18 19 20 17 14 14 13 13 16 17 16 14 13 11 8 8 8 12 11 14 14 16 16 14 17 17 13 18 14 20 22 20 19 18 17 16 16 15 15 16 17 17 20 20 22 22 23 22 22 22 23 22 22 18 16 15
15 16 19 20 23 21 19 19 20 20 21 21 16 14 13 14 16 19 15 15 10 10 7 7 10 4 8 11 14 12 15 15 18 11 15 9 19 16 17 16 15 13 13 13 12 13 15 16 16 20 20 19 21 22 22 22 24 24 23 21 19 17 16
11 14 16 18 18 18 15 15 17 21 22 25 22 17 8 14 17 17 12 14 13 10 9 4 8 10 14 15 12 11 11 5 11 15 8 12 11 13 14 13 12 10 12 14 15 16 14 16 17 16 18 19 21 21 22 23 22 23 22 20 20 20 21
16 16 16 18 16 17 14 17 19 22 24 26 21 20 12 10 10 18 13 14 11 11 12 9 9 12 9 10 13 13 10 6 9 7 14 16 13 13 12 10 12 12 13 15 15 14 12 13 16 16 17 18 20 19 22 22 21 21 21 20 21 20 21
14 14 9 9 14 14 18 21 24 22 23 24 23 15 16 16 5 12 13 13 6 12 16 15 16 9 8 9 9 10 6 9 8 12 12 13 12 14 16 14 13 12 9 13 14 15 16 16 16 15 18 19 19 17 19 22 20 20 19 18 17 20 22
16 14 16 15 18 19 19 21 22 24 23 22 23 19 19 14 11 10 7 13 12 8 13 10 9 11 6 4 6 9 7 3 7 13 13 11 14 10 12 11 13 13 12 12 14 16 16 17 18 17 18 18 18 16 19 19 20 21 17 17 17 17 18
27 22 17 21 18 17 19 21 22 23 25 24 24 21 23 17 15 17 10 10 12 12 17 14 9 7 6 10 10 15 11 7 8 5 12 17 16 15 16 15 14 15 15 13 14 15 15 17 18 17 17 17 15 14 16 17 19 21 17 17 18 19 17
24 26 26 21 20 18 19 20 21 22 23 25 26 24 23 24 15 14 16 8 15 16 17 19 17 8 11 12 11 10 13 13 6 8 6 12 16 13 14 12 12 14 15 14 14 14 14 16 18 18 16 16 17 17 17 18 16 17 17 17 17 19 19
18 24 25 26 25 21 21 20 18 19 21 22 24 24 22 19 21 23 22 19 14 12 9 14 15 11 9 9 11 17 13 14 13 10 11 8 8 11 8 12 12 11 11 11 11 14 16 18 19 18 17 18 17 21 20 21 17 15 16 17 18 18 18
16 19 24 25 25 24 21 20 22 22 22 22 21 19 19 18 14 16 22 18 12 8 12 16 17 14 10 14 10 7 6 13 15 13 11 8 8 6 12 13 12 12 13 13 12 12 14 16 18 17 16 16 17 20 19 19 21 17 16 17 18 19 17
13 16 19 20 22 21 20 22 23 23 22 20 18 20 19 19 18 16 12 12 11 10 11 16 17 22 19 15 16 17 14 8 11 12 12 11 13 7 13 10 10 14 16 15 14 16 16 16 16 18 17 16 18 18 17 17 16 17 15 18 18 17 16
13 17 15 14 14 17 19 14 18 20 19 21 23 19 16 18 22 16 16 15 11 9 10 12 13 15 15 14 17 19 14 11 9 10 12 13 15 14 14 15 14 12 10 12 14 15 14 15 19 19 18 18 17 17 16 14 14 16 13 17 17 18 17
14 12 15 14 17 17 13 13 15 19 23 23 21 21 21 21 19 22 20 18 19 17 14 14 12 7 7 9 9 13 16 16 14 8 8 10 13 8 6 10 15 13 12 11 12 13 15 17 15 14 14 15 14 15 15 15 15 15 13 14 17 17 17
9 12 14 15 16 9 7 11 13 13 15 18 18 21 19 17 16 15 12 10 10 10 16 15 13 12 13 16 10 5 7 11 12 19 19 15 14 13 10 7 10 13 15 14 16 15 14 12 14 16 17 19 20 21 20 17 15 15 14 11 16 16 16
14 12 14 15 5 9 14 16 15 11 12 14 16 15 16 18 17 14 6 10 11 15 15 14 14 14 17 14 13 20 21 15 17 19 21 24 20 15 11 8 12 11 15 16 15 11 12 14 15 17 18 19 19 19 19 17 14 15 14 12 15 15 12
13 13 12 11 13 15 12 11 10 4 3 3 8 5 6 5 9 6 7 6 9 12 14 18 14 11 11 13 12 17 26 25 23 21 18 17 14 11 10 14 14 14 13 13 12 13 15 15 17 15 17 17 15 15 17 15 15 15 13 10 12 13 11
12 14 14 13 13 11 8 10 9 10 1 1 8 3 9 4 7 9 9 8 6 7 11 12 15 10 10 10 9 9 17 22 24 24 23 22 21 16 14 11 11 14 12 13 13 13 14 18 15 14 14 15 15 15 16 16 15 16 13 12 13 13 13
8 10 12 14 8 5 4 9 12 5 7 4 3 8 10 6 6 9 8 8 8 10 9 11 9 6 8 11 9 13 15 17 20 21 14 9 10 16 16 18 13 6 11 10 11 13 14 13 14 14 15 14 15 15 15 16 17 17 15 14 15 14 13
10 9 8 8 8 3 8 5 7 6 3 4 9 12 0 5 6 7 8 8 10 10 11 8 8 7 9 12 15 20 20 20 11 6 7 11 6 8 12 12 12 7 10 12 12 15 13 12 13 13 14 15 14 13 13 14 16 16 14 14 15 15 14
13 11 12 9 7 3 2 10 8 7 8 10 13 1 1 2 7 7 9 9 12 13 12 11 11 14 17 18 19 20 22 18 6 6 7 8 14 10 4 7 5 7 11 11 11 13 9 11 11 12 13 13 12 12 13 14 13 13 13 16 13 14 14
10 10 12 9 9 6 9 3 11 10 7 2 6 3 6 9 7 9 8 13 14 13 10 13 15 18 22 22 19 20 21 14 11 12 9 5 1 5 10 6 1 9 9 11 13 12 12 15 14 12 14 13 12 12 13 12 12 13 15 15 15 14 13
11 11 11 6 6 4 15 11 6 6 1 5 5 6 5 6 9 10 10 12 11 11 12 14 15 16 17 19 21 19 12 14 5 9 5 4 4 3 5 8 4 7 6 7 9 9 12 12 11 12 12 13 12 12 12 11 14 15 15 14 14 14 13
10 6 2 5 6 2 6 6 3 7 10 7 7 9 11 10 10 10 9 10 9 11 12 14 16 15 16 14 15 15 18 16 15 13 12 11 10 10 9 7 6 11 5 7 7 9 9 8 8 10 12 14 16 13 12 13 13 14 14 14 14 14 15
5 9 7 4 3 4 8 6 1 7 10 13 13 11 9 12 11 11 10 10 10 12 12 13 13 13 14 14 13 14 15 16 16 12 12 12 9 8 6 5 13 14 10 10 12 10 11 13 13 13 12 14 17 15 14 13 13 14 14 14 13 13 12
6 2 6 6 11 13 8 8 6 6 9 12 10 12 11 11 12 12 14 14 15 14 17 16 13 14 16 14 14 12 11 13 14 14 12 11 12 11 10 14 10 3 4 5 6 9 13 13 12 12 15 14 16 14 15 13 14 14 14 14 13 12 11
9 5 10 17 17 16 15 11 7 12 14 14 13 12 13 13 13 14 13 15 15 15 17 14 15 15 15 15 16 15 14 12 8 11 11 9 7 5 3 6 6 10 12 13 12 10 7 9 8 10 9 14 15 16 16 16 15 14 13 13 13 13 14
7 5 12 17 19 18 16 17 18 14 11 14 15 15 15 15 16 16 17 16 13 14 15 13 13 14 13 14 15 16 15 15 13 9 8 5 5 7 5 3 2 8 9 9 8 9 8 6 10 12 13 14 15 15 14 15 14 15 13 13 13 14 12
6 4 7 10 9 9 11 14 15 17 17 17 18 17 17 16 15 14 16 16 17 16 14 11 9 11 10 11 11 14 12 12 13 8 3 3 6 5 7 9 12 17 14 11 12 12 5 8 10 13 14 13 13 15 15 14 14 14 13 13 14 13 12
4 7 6 9 12 16 12 11 13 15 15 16 18 17 16 16 15 15 15 15 15 16 16 15 12 9 9 11 11 10 7 8 8 8 4 6 7 6 10 12 11 12 12 11 9 10 7 7 10 10 11 13 13 13 12 13 14 13 12 10 11 12 11
14 7 3 5 11 14 13 12 12 14 13 14 16 16 16 15 15 15 15 15 14 12 12 13 15 15 14 14 11 9 11 10 6 12 11 7 7 9 10 11 12 14 14 12 11 9 7 7 8 8 11 11 10 13 12 12 11 11 11 10 10 11 11
1 10 9 11 17 16 13 13 13 13 13 13 13 15 14 14 14 13 14 12 12 13 11 12 13 14 13 13 11 9 6 8 12 6 6 9 12 11 12 13 12 12 12 11 9 8 8 8 8 9 9 8 7 10 11 12 11 10 9 9 12 11 10
Wind_Direction
215 209 209 213 215 219 196 206 216 222 222 227 230 253 254 240 232 246 242 241 237 235 244 245 221 214 220 213 220 217 192 187 200 213 206 184 181 181 184 191 196 198 199 193 193 197 204 193 188 193 194 193 191 183 180 179 181 181 183 182 181 179 180
216 208 208 214 210 231 216 212 214 215 225 231 232 232 227 237 243 235 225 240 242 229 229 197 226 220 212 217 214 224 208 188 198 212 196 181 177 181 186 192 193 193 196 191 189 195 202 198 194 190 189 190 191 187 183 178 180 181 181 181 180 179 179
198 201 204 212 218 215 234 231 184 216 191 217 207 235 234 230 226 244 241 239 245 241 237 225 205 221 212 199 206 215 218 192 196 208 178 169 176 181 185 192 190 191 191 189 190 198 204 200 190 187 186 186 189 187 185 183 182 181 180 182 184 181 180
183 191 199 215 205 210 226 243 244 201 237 216 216 216 245 251 239 227 234 233 234 224 248 241 224 213 224 205 194 203 219 217 207 211 167 162 171 173 184 187 187 188 194 197 198 202 203 198 186 186 189 192 194 193 186 186 183 180 181 185 182 182 182
184 200 197 215 208 199 205 223 233 231 210 229 234 216 224 227 233 238 243 233 226 233 232 238 237 222 210 207 235 205 204 225 232 241 170 170 169 180 181 186 184 182 188 193 201 204 202 199 190 191 193 194 194 194 191 188 184 183 185 187 183 183 182
202 210 195 212 216 207 209 212 222 225 223 198 216 230 218 222 225 230 237 247 245 219 227 235 255 224 174 185 222 234 206 212 228 215 222 168 171 165 175 178 175 181 184 190 197 194 193 200 197 195 193 193 194 194 192 189 187 187 187 187 184 181 182
210 209 206 200 218 221 215 211 221 221 229 220 203 223 217 222 227 229 235 252 236 241 239 221 236 236 208 201 207 227 215 211 212 221 212 175 168 174 176 174 178 178 175 178 182 184 185 197 197 194 193 194 193 193 191 190 188 188 189 188 184 178 180
251 211 213 207 203 220 224 216 219 216 222 224 226 216 216 231 218 218 218 233 243 225 237 237 233 258 240 205 201 208 231 209 205 202 233 162 173 171 169 175 171 161 161 162 164 181 190 194 194 189 193 193 191 191 192 190 191 188 189 187 183 176 178
233 252 206 211 202 205 223 227 215 221 223 227 235 246 215 229 239 242 220 232 224 215 245 195 238 255 248 239 216 203 224 228 173 199 184 147 164 157 157 163 150 145 153 153 169 185 189 193 193 186 187 194 192 190 190 190 190 189 190 186 184 180 181
203 213 212 197 199 207 208 227 232 218 222 221 224 233 231 238 202 229 236 233 220 209 205 231 210 229 256 237 217 203 202 190 200 119 134 144 142 151 154 157 140 162 176 177 182 184 186 191 192 186 186 188 194 191 191 189 189 189 189 187 185 182 184
214 221 236 196 200 209 218 208 221 228 219 222 223 226 236 237 217 213 232 262 273 225 207 210 211 215 249 238 222 227 187 176 122 127 130 147 149 159 161 159 161 174 179 179 186 187 189 194 194 186 184 188 194 192 189 189 188 188 188 184 180 183 186
244 221 227 236 198 215 219 220 212 223 233 224 225 223 225 227 242 238 209 219 243 256 253 226 217 202 189 252 297 271 267 271 191 144 129 152 152 161 157 163 166 175 189 195 186 188 192 192 191 187 185 189 195 190 188 190 186 188 187 181 181 184 189
226 238 230 225 233 214 222 222 223 216 221 233 227 225 230 223 228 239 225 195 234 245 239 242 240 224 182 193 205 246 253 213 224 204 156 154 163 165 169 166 173 179 190 194 197 197 194 188 187 185 185 189 191 190 190 193 190 189 183 179 180 184 185
213 225 237 244 238 232 223 230 226 222 217 221 236 236 228 227 233 240 249 219 214 225 241 240 236 225 226 213 201 211 255 260 194 174 153 210 199 179 151 153 167 177 182 189 192 191 186 184 184 185 185 187 190 190 189 191 198 187 179 181 181 182 184
226 214 221 234 242 244 239 229 240 230 219 224 222 234 240 231 233 238 242 245 231 213 226 245 251 229 210 230 214 216 219 250 249 219 212 224 202 195 146 157 174 180 177 169 170 174 177 182 185 187 186 188 190 194 193 194 197 190 178 179 180 183 187
228 228 217 216 230 241 246 243 222 232 241 223 220 222 222 238 229 228 239 247 239 224 229 241 242 247 215 234 260 253 237 222 229 240 236 231 259 197 159 178 183 178 175 172 178 179 180 183 186 188 188 186 186 194 194 195 195 195 180 176 178 183 183
235 227 232 222 221 227 236 236 242 230 220 252 245 219 214 222 245 257 247 236 241 230 214 235 231 222 224 201 231 249 241 236 235 218 222 231 249 193 186 191 176 181 181 178 183 189 188 186 186 190 188 186 188 190 195 195 190 195 178 176 177 180 180
221 227 240 225 217 229 229 228 234 249 251 222 237 250 225 214 207 217 222 242 255 260 262 250 242 234 225 218 204 211 228 236 234 236 202 217 233 217 192 189 194 192 187 185 188 188 191 190 193 192 189 189 189 190 193 191 191 198 182 180 178 181 182
218 220 232 235 229 228 229 235 235 235 245 258 255 237 231 237 237 216 214 217 215 231 241 252 265 264 278 265 237 222 219 232 238 224 232 217 225 222 197 166 173 177 181 185 180 186 193 197 195 192 189 189 184 188 191 194 194 195 194 177 179 180 181
227 223 216 227 223 247 268 261 257 248 255 259 265 270 266 257 263 278 271 297 304 231 214 232 253 272 273 273 268 200 261 266 248 237 239 236 230 227 236 192 171 167 178 176 183 185 191 188 186 191 193 194 194 194 195 196 193 193 193 173 171 175 177
223 216 223 235 289 257 236 243 238 228 235 234 241 250 249 249 254 263 326 289 292 343 320 256 227 224 244 256 261 272 263 252 257 255 240 233 235 238 236 217 176 178 174 175 184 177 183 191 189 192 195 196 197 194 194 194 187 188 187 176 173 168 155
213 219 217 224 225 229 224 236 228 229 43 34 40 22 298 343 343 348 328 339 354 345 340 336 292 243 237 232 231 229 247 254 256 255 257 245 241 240 243 231 188 172 173 174 179 178 185 194 195 194 194 193 192 191 191 186 182 184 175 153 159 155 148
193 215 226 220 226 223 216 232 227 210 249 43 48 283 270 305 297 350 4 323 338 315 310 322 344 323 270 249 247 222 219 232 245 251 245 238 236 246 257 259 189 173 172 179 181 187 190 197 196 190 189 190 187 189 188 181 176 179 163 150 153 150 142
234 224 220 225 217 222 161 217 232 174 198 156 179 246 237 41 23 25 12 357 349 350 346 349 323 327 315 296 271 246 251 249 236 229 239 249 214 224 236 246 254 174 156 157 179 193 200 196 192 187 185 182 181 184 185 176 174 176 161 150 147 148 142
226 219 248 252 246 176 159 231 162 147 153 124 223 233 122 19 1 21 3 349 3 354 350 349 311 311 300 292 303 297 271 259 271 311 346 320 250 200 222 247 249 153 150 162 182 199 200 196 192 182 175 175 174 179 175 172 173 172 148 137 139 141 139
220 222 231 238 256 164 199 188 189 137 205 209 224 74 65 360 9 1 1 347 10 6 2 3 340 326 311 306 303 298 292 264 103 84 46 2 352 334 299 313 287 151 160 163 185 197 187 187 187 170 165 164 165 165 166 165 159 151 131 137 140 138 134
240 224 229 230 238 151 168 207 226 159 208 218 22 71 55 30 5 2 5 27 21 17 359 8 9 360 354 334 322 304 299 273 149 106 102 89 257 356 329 329 120 144 166 172 191 194 185 188 181 162 155 148 148 151 153 152 148 130 129 130 133 134 137
239 224 227 233 247 217 149 176 214 222 111 48 36 22 49 41 27 14 27 29 23 21 27 20 15 14 1 352 351 343 331 356 348 91 100 106 69 63 281 295 324 216 185 177 179 190 182 177 169 163 149 143 144 147 149 138 129 127 126 128 129 132 135
229 256 241 41 359 75 131 130 137 88 73 62 59 52 40 32 33 30 42 27 27 32 41 40 30 22 11 356 360 9 360 7 15 17 25 24 18 355 338 305 224 228 193 166 179 173 171 167 139 130 130 136 128 123 124 123 126 126 127 130 135 138 144
87 86 92 113 65 132 149 95 155 115 73 51 59 55 50 49 52 46 41 37 35 31 30 45 35 23 8 4 14 26 27 22 13 7 19 23 20 34 348 288 274 253 204 190 172 122 100 105 113 120 121 124 121 119 120 119 125 127 130 129 132 137 135
223 63 20 121 86 52 55 121 107 94 95 72 66 78 75 73 69 63 54 49 49 45 38 31 25 26 13 2 4 20 22 36 38 38 38 34 26 20 360 332 335 23 54 60 67 117 120 110 108 109 118 116 114 117 112 114 119 123 124 126 127 126 118
301 140 86 79 78 64 42 30 86 93 85 87 81 78 82 81 71 62 61 59 53 50 49 38 40 34 19 18 18 11 5 358 18 55 47 46 62 66 344 290 67 56 47 60 49 34 49 86 89 89 88 109 115 117 123 125 121 119 122 125 123 122 123
279 111 103 99 81 70 61 56 51 53 88 102 93 85 78 74 69 63 58 55 59 56 51 46 47 43 29 24 22 16 5 339 341 1 60 97 118 113 99 314 102 93 93 78 98 97 82 113 121 127 125 118 115 111 112 116 118 116 115 114 117 122 126
217 174 181 125 112 108 75 65 66 67 64 70 76 74 70 66 69 72 70 58 50 51 46 41 52 60 44 29 27 25 2 348 325 326 333 105 55 86 107 73 65 70 55 48 48 55 38 87 93 97 100 107 109 112 115 117 118 117 120 126 129 133 135
239 249 269 348 88 93 90 91 83 77 74 74 73 72 73 70 63 58 57 55 45 41 36 30 28 39 60 53 44 39 358 13 338 295 19 50 78 59 85 101 91 95 111 118 116 105 96 81 89 100 109 116 114 111 112 120 124 127 131 133 136 136 143
275 269 111 136 105 114 114 99 85 78 71 71 74 72 68 64 61 59 59 54 50 42 31 29 29 24 22 32 40 49 16 347 5 350 343 32 56 65 67 68 71 76 76 76 80 84 92 98 99 102 108 109 108 115 119 120 127 131 136 140 146 149 151
316 141 151 118 109 105 100 93 84 80 80 76 71 65 61 62 60 59 62 62 53 45 35 29 28 26 24 19 16 24 50 19 334 322 7 26 34 38 48 55 64 70 77 85 86 79 77 86 94 95 90 91 103 122 129 133 140 141 143 151 149 149 141